Location: Wildcat Hills Observatory
(41.6350°N, 103.6812°W)
Time: 01:14:53
(UTC-06:00)

Cosmos 2315 Rocket - Pass Details

Date: 23 June 2018
Orbit: 965 x 1003 km, 82.9° (Epoch: 24 September)

Event Time Altitude Azimuth Distance (km) Brightness Sun altitude
Exits shadow 22:47:24 28° 166° (SSE) 1,751 4.8 -18.4°
Maximum altitude 22:50:47 65° 93° (E) 1,085 4.1 -18.7°
Drops below altitude 10° 22:57:04 10° 13° (NNE) 2,775 7.0 -19.3°
Sets 22:59:38 0° 11° (N) 3,732 7.9 -19.5°
